Location: Carthage
(33.8834°N, 106.6595°W)
Time: 03:53:48
(UTC+00:00)

Cosmos 2322 Rocket - Pass Details

Date: 17 May 2026
Orbit: 831 x 850 km, 71.0° (Epoch: 9 June)

Event Time Altitude Azimuth Distance (km) Brightness Sun altitude
Rises 04:52:04 0° 339° (NNW) 3,405 6.5 -28.3°
Reaches altitude 10° 04:54:31 10° 339° (NNW) 2,470 5.5 -28.6°
Enters shadow 04:59:48 78° 334° (NNW) 867 2.2 -29.2°
